Overview Statistics Trail Chart Weather Telemetry Raw packets
 

This is the latest recevied weather packets stored in our database for station/object KC9DRE. If no packets are shown the sender has not sent any weather packets the latest 10 day(s).

<< 74 75 76 77 78 79 80 >>
Time Temp. Humidity Pressure Rain* Wind** Luminosity Snow
1777388269 16.67° C 95% 1016.1 hPa 0 mm - 118 W/m² -
1777387964 17.22° C 94% 1015.8 hPa 0 mm - 76 W/m² -
1777387661 17.22° C 95% 1015.7 hPa 0 mm - 100 W/m² -
1777387358 17.22° C 94% 1015.6 hPa 0 mm - 94 W/m² -
1777387058 16.67° C 94% 1015.4 hPa 0 mm - 130 W/m² -
1777386754 16.67° C 94% 1015.5 hPa 0 mm - 128 W/m² -
1777386451 16.67° C 94% 1015.4 hPa 0 mm - 129 W/m² -
1777386148 16.67° C 94% 1015.5 hPa 0 mm - 148 W/m² -
1777385845 16.67° C 95% 1015.4 hPa 0 mm - 144 W/m² -
1777385542 16.67° C 95% 1015.4 hPa 0 mm - 114 W/m² -
1777385239 16.67° C 95% 1015.6 hPa 0 mm - 104 W/m² -
1777384934 16.67° C 95% 1015.5 hPa 0 mm - 88 W/m² -
1777384632 16.67° C 96% 1015.5 hPa 0 mm - 70 W/m² -
1777384332 17.22° C 96% 1015.5 hPa 0 mm - 67 W/m² -
1777384028 17.22° C 96% 1015.5 hPa 0 mm - 57 W/m² -
1777383724 17.22° C 97% 1015.4 hPa 0 mm - 71 W/m² -
1777383421 17.22° C 97% 1015.3 hPa 0 mm - 75 W/m² -
1777383116 17.22° C 97% 1015.2 hPa 0 mm - 76 W/m² -
1777382814 17.22° C 98% 1014.8 hPa 0 mm - 68 W/m² -
1777382509 17.22° C 98% 1014.8 hPa 0 mm - 48 W/m² -
1777382205 17.22° C 98% 1014.7 hPa 0 mm - 53 W/m² -
1777381902 17.22° C 98% 1014.6 hPa 0 mm - 44 W/m² -
1777381601 17.22° C 98% 1014.5 hPa 0 mm - 64 W/m² -
1777381298 17.22° C 98% 1014.3 hPa 0 mm - 38 W/m² -
1777380994 17.22° C 98% 1014.5 hPa 0 mm - 41 W/m² -

* Rain latest hour (hover to see other rain measurements)
** Current wind speed in m/s (hover to see current wind gust speed)